www.pogodaiklimat.ru

Погода и климат >> Архив погоды >> Ирак >> Dohuk


ПОГОДА в Dohuk

  • Прогноз погоды в Dohuk
  • Монитор погоды в Dohuk
  • Климат города

АРХИВ ПОГОДЫ в Dohuk

Время (UTC), дата Ветер
(напр.,м/с)
 
Видим.   Явления Облачность Т
(С)
Тd
(С)
f
(%)
Тe
(С)
Тes
(С)
Комфортность P
(гПа)
Po
(гПа)
Тmin
(С)
Tmax
(С)
R
(мм)
R24
(мм)
S
(см)
03 14.02 штиль 0 9000 м дымка ясно +4.7 +4.0 95 +4 +4 1017.7 1018.0
09 14.02 З 2 7000 м дымка 9/0
[As trans]
+9.2 +7.8 91 +7 +12 1022.8 1023.0
12 14.02 Ю 3 8000 м дымка 6/4 900 м
[Cu med, cong Ac cuf Ci sp]
+13.7 +8.9 73 +13 +14 1022.7 1023.0
15 14.02 Ю 2 8000 м дымка 8/0
[Ac cuf Ci sp]
+11.4 +8.0 80 +10 +10 1023.3 1023.0
18 14.02 З 1 9000 м дымка 5/0
[Ac cuf Ci sp]
+9.4 +8.0 91 +9 +9 1024.8 1025.0 +14.1
06 15.02 В 1 9000 м дымка 4/0
[Ac cuf Ci sp]
+7.3 +5.6 89 +6 +10 1028.9 1029.0 +5.8
15 15.02 Ю 1 10 км 4/0
[Ac cuf Ci sp]
+13.5 +7.8 68 +14 +14 1024.8 1025.0
18 15.02 В 1 10 км ясно +10.0 +7.1 82 +10 +10 1024.3 1024.0 +15.8
06 16.02 ЮВ 1 10 км 9/3 900 м
[Cu hum Ac cuf]
+11.5 +3.6 58 +12 +13 1025.4 1025.0 +5.6
09 16.02 Ю 2 10 км 9/9 900 м
[Cu Sc]
+12.9 +4.6 57 +12 +13 1025.2 1025.0
12 16.02 С 1 10 км 10/10 900 м
[Cu Sc]
+13.2 +5.8 61 +14 +14 1023.2 1023.0
15 16.02 ЮВ 2 10 км 10/10 900 м
[Cu Sc]
+14.0 +4.5 53 +14 +14 1022.0 1022.0
18 16.02 ЮВ 2 10 км 10/10 900 м
[Cu Sc]
+12.5 +5.9 64 +12 +12 1022.4 1022.0 +14.8
06 17.02 штиль 0 10 км в посл. час морось {дождь} 9/9 900 м
[Frnb]
+11.3 +10.2 93 +11 +11 1019.0 1019.0 +10.3 2
09 17.02 ЮВ 1 8000 м слабая морось {дождь} 10/10 900 м
[Frnb]
+12.7 +10.9 89 +13 +13 1017.6 1018.0
12 17.02 ЮВ 4 10 км {дождь, морось} 10/10 900 м
[Frnb]
+15.3 +8.6 64 +14 +14 1013.7 1014.0
15 17.02 ЮВ 3 10 км 9/9 900 м
[Frnb]
+14.8 +9.1 69 +14 +14 1011.7 1012.0
18 17.02 ЮВ 6 9000 м в посл. час дождь 10/10 900 м
[Frnb]
+13.8 +10.1 78 +12 +12 1010.8 1011.0 +17.2 2
12 18.02 Ю 4 8000 м пыль {туман} 10/10 900 м
[Cu Sc]
+12.0 +7.0 71 +10 +10 1005.6 1006.0
15 18.02 Ю 7 8000 м в посл. час гроза {дождь} 10/10 900 м
[Cu Sc]
+8.7 +6.4 85 +4 +4 1009.4 1009.0
18 18.02 В 3 7000 м слабый дождь {морось} 10/10 900 м
[Sc]
+7.5 +5.3 86 +5 +5 1010.7 1011.0 +15.0 17
06 19.02 С 1 10 км 3/0
[Ac cuf Ci sp]
+10.0 +5.8 75 +10 +14 1014.5 1015.0 +7.9 2
09 19.02 З 3 10 км 9/9 900 м
[Cu Sc]
+11.2 +6.7 74 +9 +10 1015.9 1016.0
12 19.02 ЮЗ 2 10 км 5/5 900 м
[Cu Sc]
+13.2 +6.8 65 +13 +15 1015.6 1016.0
15 19.02 ЮЗ 2 10 км 9/9 900 м
[Cu Sc]
+12.2 +6.7 69 +11 +11 1016.1 1016.0
18 19.02 З 1 10 км 5/0
[Ac cuf]
+10.7 +7.3 79 +10 +10 1018.8 1019.0 +15.9
06 20.02 СЗ 1 10 км 8/0
[Ci]
+9.7 +5.7 76 +9 +13 1020.5 1021.0 +6.7
09 20.02 З 1 10 км 5/3 900 м
[Cu med, cong Ac cuf Ci sp]
+12.5 +6.4 66 +13 +20 1021.1 1021.0
12 20.02 СЗ 2 10 км 9/4 900 м
[Cu Sc Ac trans Ci sp]
+14.4 +8.0 65 +14 +16 1018.1 1018.0
15 20.02 З 1 10 км 9/6 900 м
[Cu Sc Ac cuf Ci sp]
+12.6 +6.0 64 +13 +13 1018.2 1018.0
18 20.02 ЮЗ 1 10 км 4/0
[Ci sp]
+11.6 +7.6 76 +12 +12 1017.7 1018.0 +15.8

 

Местоположение метеостанции Dohuk (Ирак): широта 36.87 долгота 43.00 высота над уровнем моря 276 м.

В архиве по умолчанию представлена погода в Dohuk за последнюю неделю. Архивные данные за месяц целиком и за предыдущие месяцы, начиная с января 2011 года, Вы можете получить, выбрав интересующий диапазон дат из раскрывающегося списка и нажав кнопку "Ввод!".

Внимание! Время в таблицах - всемирное. Для получения местного времени необходимо прибавить поправку, которая в Dohuk равна 3 ч.

Смотрите также архив погоды в соседних городах и на ближайших метеорологических станциях:

Погода в Zakho (Ирак) (38 км)
Погода в Mosul (Ирак) (63 км)
Погода в Aqraa (Ирак) (79 км)
Погода в Rabiah (Ирак) (80 км)
Погода в S?rnak (Турция) (87 км)
Погода в Hakkari (Турция) (104 км)
Погода в Erbeel (Ирак) (120 км)
Погода в Salahadin (Ирак) (120 км)
Погода в Makhmoor (Ирак) (136 км)
Погода в Siirt (Турция) (150 км)

Пояснения к столбцам:

Ветер - указаны скорость ветра в м/с - средняя за 10 мин, порывы в срок и между сроками (в фигурных скобках) и направление, откуда дует ветер: С - северный, СВ - северо-восточный, В - восточный, ЮВ - юго-восточный, Ю - южный, ЮЗ - юго-западный, З - западный, СЗ - северо-западный.
Видимость - горизонтальная дальность видимости в метрах или километрах. При видимости от 1 до 10 км при отсутствии осадков обычно наблюдается дымка, при ухудшении видимости до 1 км и менее - туман. В сухую погоду видимость может ухудшаться дымом, пылью или мглою.
Явления - указаны атмосферные явления, наблюдавшиеся в срок или в последний час перед сроком; фигурными скобками обозначены явления, наблюдавшиеся между сроками (за 1-3 часа до срока); квадратными скобками обозначены град или гололедные отложения с указанием их диаметра в мм.
Облачность - указаны через наклонную черту общая и нижняя облачность в баллах и высота нижней границы облаков в метрах; квадратными скобками обозначены формы облаков: Ci - перистые, Cs - перисто-слоистые, Cc - перисто-кучевые, Ac - высококучевые, As - высокослоистые, Sc - слоисто-кучевые, Ns - слоисто-дождевые, Cu - кучевые, Cb - кучево-дождевые. Подробнее классификацию облаков см. в Атласе облаков (PDF).
T - Температура воздуха - температура, измеренная на высоте 2 м над землей.
Td - Температура точки росы - температура, при понижении до которой содержащийся в воздухе водяной пар достигнет насыщения.
f - Относительная влажность воздуха - влажноcть воздуха, измеренная на высоте 2 м над землей.
Te - Эффективная температура - температура, которую ощущает одетый по сезону человек в тени. Характеристика душности погоды. При расчете учитывается влияние влажности воздуха и скорости ветра на теплоощущения человека.
Tes - Эффективная температура на солнце - температура, которую ощущает человек, с поправкой на солнечный нагрев. Характеристика знойности погоды. Зависит от высоты солнца над горизонтом, облачности и скорости ветра. Ночью, в пасмурную погоду, а также при ветре 12 м/с и более поправка равна нулю.
P - Атмосферное давление - приведенное к уровню моря атмосферное давление.
Po - Атмосферное давление - измеренное на уровне метеостанции атмосферное давление.
Tmin - Минимальная температура - минимум температуры воздуха на высоте 2 м над землей.
Tmax - Максимальная температура - максимум температуры воздуха на высоте 2 м над землей.
R - Количество осадков - Количество выпавших осадков за период времени, мм. При наведении курсора мыши на число - период времени, за который выпало указанное количество осадков.
R24 - Количество осадков - Количество выпавших осадков за 24 часа, мм.
S - Снежный покров - Высота снежного покрова, см. При наведении курсора мыши на число - состояние снежного покрова и степень покрытия местности в баллах.